Date String (YYYY-MM-DD hh:mm:ss) UTC,Instrument flags,Ambient pressure (hPa),Sample flow (lpm),Bypass flow (lpm),Sample temperature (°C),Ambient temperature (°C),ASC tube jacket temperature (°C),LED temperature (°C),Box temperature (°C),Sample RH (%),Span deviation,Mass concentration (μg/m³),Mass concentration (μg/m³),Mass concentration (μg/m³)
DateTimeUTC,F1_M11,P_M11,Q1_M11,Q2_M11,T1_M11,T2_M11,T3_M11,T4_M11,T5_M11,U1_M11,ZSPAN_M11,X0_M11,X2_M11,X1_M11
2022-05-19 04:00:00,,0822.7,5.00,0.00,29.4,27.5,00.0,38.3,31.1,13.1,0000.0,0012.81,0004.24,0002.90
2022-05-19 04:01:00,,0822.8,5.00,0.00,29.4,27.7,00.0,38.3,31.2,13.1,0000.0,0013.86,0004.23,0002.85
2022-05-19 04:02:00,,0822.8,5.00,0.00,29.4,27.8,00.0,38.3,31.2,13.3,0000.0,0014.53,0004.18,0002.84
2022-05-19 04:03:00,,0822.8,4.99,0.00,29.4,28.0,00.0,38.3,31.2,13.5,0000.0,0013.89,0004.19,0002.86
2022-05-19 04:04:00,,0822.8,5.00,0.00,29.4,28.1,00.0,38.3,31.3,13.5,0000.0,0013.34,0004.20,0002.89
2022-05-19 04:05:00,,0822.8,5.00,0.00,29.4,28.2,00.0,38.3,31.3,13.5,0000.0,0013.36,0004.19,0002.92
2022-05-19 04:06:00,,0822.8,4.99,0.00,29.4,28.3,00.0,38.3,31.3,13.5,0000.0,0013.47,0004.22,0002.94
2022-05-19 04:07:00,,0822.8,5.00,0.00,29.5,28.4,00.0,38.3,31.4,13.5,0000.0,0013.41,0004.22,0002.96
2022-05-19 04:08:00,,0822.8,5.01,0.00,29.5,28.4,00.0,38.3,31.4,13.5,0000.0,0014.22,0004.24,0002.97
2022-05-19 04:09:00,,0822.8,5.00,0.00,29.5,28.5,00.0,38.3,31.4,13.5,0000.0,0013.78,0004.27,0002.99
2022-05-19 04:10:00,,0822.8,5.00,0.00,29.5,28.6,00.0,38.3,31.4,13.6,0000.0,0013.16,0004.25,0002.99
2022-05-19 04:11:00,,0822.7,5.00,0.00,29.6,28.6,00.0,38.4,31.5,13.7,0000.0,0012.54,0004.25,0003.01
2022-05-19 04:12:00,,0822.8,4.99,0.00,29.6,28.7,00.0,38.4,31.5,13.9,0000.0,0011.43,0004.24,0003.04
2022-05-19 04:13:00,,0822.8,4.99,0.00,29.6,28.7,00.0,38.4,31.5,14.0,0000.0,0010.69,0004.30,0003.08
2022-05-19 04:14:00,,0822.8,5.00,0.00,29.7,28.7,00.0,38.4,31.6,14.1,0000.0,0010.54,0004.37,0003.12
2022-05-19 04:15:00,,0822.7,5.01,0.00,29.6,27.8,00.0,38.4,31.3,14.2,0000.0,0011.14,0004.37,0003.14
2022-05-19 04:16:00,,0822.7,5.00,0.00,29.5,27.3,00.0,38.3,31.2,14.1,0000.0,0012.31,0004.40,0003.15
2022-05-19 04:17:00,,0822.7,5.00,0.00,29.5,27.2,00.0,38.3,31.1,13.9,0000.0,0012.74,0004.38,0003.15
2022-05-19 04:18:00,,0822.7,4.99,0.00,29.4,27.2,00.0,38.3,31.1,14.4,0000.0,0013.69,0004.40,0003.16
2022-05-19 04:19:00,,0822.7,5.00,0.00,29.4,27.3,00.0,38.3,31.1,14.5,0000.0,0013.72,0004.40,0003.17
2022-05-19 04:20:00,,0822.7,5.00,0.00,29.3,27.5,00.0,38.3,31.1,14.9,0000.0,0013.68,0004.39,0003.18
2022-05-19 04:21:00,,0822.7,5.00,0.00,29.3,27.7,00.0,38.3,31.1,15.1,0000.0,0014.09,0004.42,0003.20
2022-05-19 04:22:00,,0822.6,4.99,0.00,29.3,27.8,00.0,38.3,31.2,15.0,0000.0,0014.27,0004.43,0003.22
2022-05-19 04:23:00,,0822.7,4.98,0.00,29.4,27.9,00.0,38.3,31.2,14.9,0000.0,0014.33,0004.43,0003.23
2022-05-19 04:24:00,,0822.6,5.01,0.00,29.4,28.0,00.0,38.3,31.2,14.8,0000.0,0014.02,0004.39,0003.24
2022-05-19 04:25:00,,0822.6,5.00,0.00,29.4,28.1,00.0,38.3,31.3,13.9,0000.0,0014.36,0004.34,0003.23
2022-05-19 04:26:00,,0822.6,5.00,0.00,29.4,28.2,00.0,38.3,31.3,12.0,0000.0,0013.88,0004.30,0003.19
2022-05-19 04:27:00,,0822.6,5.00,0.00,29.4,28.3,00.0,38.3,31.3,13.2,0000.0,0012.73,0004.27,0003.17
2022-05-19 04:28:00,,0822.6,5.00,0.00,29.5,28.4,00.0,38.3,31.3,13.1,0000.0,0012.25,0004.29,0003.16
2022-05-19 04:29:00,,0822.6,4.99,0.00,29.5,28.4,00.0,38.3,31.4,12.2,0000.0,0011.51,0004.25,0003.13
2022-05-19 04:30:00,,0822.6,5.01,0.00,29.5,28.5,00.0,38.3,31.4,11.0,0000.0,0010.77,0004.22,0003.08
2022-05-19 04:31:00,,0822.5,5.01,0.00,29.5,28.5,00.0,38.3,31.4,10.8,0000.0,0010.61,0004.17,0003.01
2022-05-19 04:32:00,,0822.5,4.99,0.00,29.6,28.6,00.0,38.4,31.5,10.6,0000.0,0010.28,0004.11,0002.90
2022-05-19 04:33:00,,0822.4,4.99,0.00,29.6,28.6,00.0,38.4,31.5,10.4,0000.0,0009.83,0004.01,0002.79
2022-05-19 04:34:00,,0822.4,4.99,0.00,29.6,28.7,00.0,38.4,31.5,10.4,0000.0,0009.51,0003.91,0002.68
2022-05-19 04:35:00,,0822.4,4.99,0.00,29.6,28.7,00.0,38.4,31.5,10.4,0000.0,0009.45,0003.84,0002.58
2022-05-19 04:36:00,,0822.5,5.00,0.00,29.7,28.7,00.0,38.4,31.5,10.4,0000.0,0008.68,0003.83,0002.49
2022-05-19 04:37:00,,0822.4,5.01,0.00,29.7,28.8,00.0,38.5,31.6,10.2,0000.0,0008.63,0003.83,0002.47
2022-05-19 04:38:00,,0822.4,5.00,0.00,29.7,28.3,00.0,38.4,31.5,10.2,0000.0,0008.69,0003.78,0002.41
2022-05-19 04:39:00,,0822.4,5.01,0.00,29.6,27.4,00.0,38.4,31.2,10.2,0000.0,0009.13,0003.70,0002.33
2022-05-19 04:40:00,,0822.4,4.99,0.00,29.5,27.1,00.0,38.3,31.1,10.2,0000.0,0008.76,0003.64,0002.29
2022-05-19 04:41:00,,0822.4,4.99,0.00,29.4,27.1,00.0,38.3,31.1,10.4,0000.0,0008.79,0003.62,0002.26
2022-05-19 04:42:00,,0822.4,5.01,0.00,29.4,27.2,00.0,38.3,31.0,10.3,0000.0,0008.64,0003.59,0002.23
2022-05-19 04:43:00,,0822.4,4.99,0.00,29.4,27.4,00.0,38.3,31.1,10.4,0000.0,0008.49,0003.57,0002.23
2022-05-19 04:44:00,,0822.5,5.01,0.00,29.3,27.5,00.0,38.3,31.1,10.4,0000.0,0008.51,0003.58,0002.23
2022-05-19 04:45:00,,0822.4,5.01,0.00,29.3,27.6,00.0,38.3,31.1,10.5,0000.0,0008.73,0003.65,0002.24
2022-05-19 04:46:00,,0822.4,5.00,0.00,29.3,27.8,00.0,38.3,31.2,10.4,0000.0,0008.92,0003.70,0002.24
2022-05-19 04:47:00,,0822.4,4.99,0.00,29.4,27.9,00.0,38.3,31.2,10.4,0000.0,0008.84,0003.66,0002.22
2022-05-19 04:48:00,,0822.4,5.00,0.00,29.4,28.0,00.0,38.3,31.2,10.5,0000.0,0008.64,0003.59,0002.20
2022-05-19 04:49:00,,0822.4,5.00,0.00,29.4,28.1,00.0,38.3,31.2,10.6,0000.0,0008.61,0003.57,0002.18
2022-05-19 04:50:00,,0822.4,5.01,0.00,29.4,28.2,00.0,38.3,31.3,10.5,0000.0,0008.05,0003.59,0002.18
2022-05-19 04:51:00,,0822.4,5.00,0.00,29.4,28.3,00.0,38.3,31.3,10.5,0000.0,0008.16,0003.63,0002.18
2022-05-19 04:52:00,,0822.4,4.99,0.00,29.4,28.3,00.0,38.3,31.3,10.5,0000.0,0008.34,0003.59,0002.17
2022-05-19 04:53:00,,0822.4,5.00,0.00,29.5,28.4,00.0,38.3,31.4,10.4,0000.0,0009.08,0003.66,0002.19
2022-05-19 04:54:00,,0822.4,5.01,0.00,29.5,28.4,00.0,38.3,31.4,10.4,0000.0,0009.23,0003.70,0002.18
2022-05-19 04:55:00,,0822.3,5.00,0.00,29.5,28.5,00.0,38.3,31.4,10.4,0000.0,0009.39,0003.75,0002.18
2022-05-19 04:56:00,,0822.3,4.99,0.00,29.5,28.5,00.0,38.4,31.4,10.3,0000.0,0009.41,0003.77,0002.17
2022-05-19 04:57:00,,0822.2,5.00,0.00,29.6,28.6,00.0,38.4,31.4,10.3,0000.0,0009.33,0003.73,0002.16
2022-05-19 04:58:00,,0822.1,5.00,0.00,29.6,28.6,00.0,38.4,31.5,10.3,0000.0,0009.57,0003.78,0002.18
2022-05-19 04:59:00,,0822.1,4.99,0.00,29.6,28.7,00.0,38.4,31.5,10.2,0000.0,0009.93,0003.84,0002.20
